COSMOS 2251 DEB, 36540

Orbit data source: Space-Track

COSMOS 2251 DEB, 36540 is space debris in LEO originally from a launch on Wed, 16 Jun 1993 UTC launched from the Plesetsk Missile And Space Complex (PKMTR). The debris from Iridium 33, an American commercial communications satellite, has been tracked extensively since its accidental collision with the defunct Russian satellite Cosmos 2251 in 2009. This event, occurring at high speed in low Earth orbit (LEO), generated thousands of pieces of space debris, significantly increasing the risk of further collisions. The Iridium 33 debris cloud has impacted space traffic management and orbital debris mitigation strategies, making it a subject of ongoing study in space situational awareness.

Loading next visibility...
Identifier
36540, 1993-036BDA
Orbit
LEO
Country
Flag of CISCIS
Related business
Manufacturer
Unknown
Mission
Spacecraft
Bus & Motor
Unknown
Mass
Unknown
Launch date (UTC)
1993-06-16 (33 years ago)
Launch vehicle
Unknown
Launch site
Plesetsk Missile And Space Complex (PKMTR)
Object type
Payload
Rocket body
Debris
Shape & HBR
Unknown shape, 0.1 m
Radar Cross Section
Small (<0.1 m²)

Expand to show TLE details & history
Last TLE update: 20 hours ago

TLE from 20 hours ago
0 COSMOS 2251 DEB
1 36540U 93036BDA 26207.15459357  .00004238  00000-0  87537-3 0  9995
2 36540  74.0282 110.3684 0014097 130.7875 229.4516 14.60636963892998
Epoch: 2026-07-26T03:42Z
TLE epoch observation values (Epoch: 2026-07-26T03:42:36.884Z)
Latitude
-0.00008°
Longitude
110.8581°
Altitude
700.246 km
Speed
7.503 km/s
True Right ascension
07h 21m 28s
True Declination
0° 00' 00"
Sunlit
Object was in daylight at epoch
Visualization orbit readout
Latitude
Unknown
Longitude
Unknown
Altitude
Unknown
Speed
Unknown
Apparent Right ascension
Unknown
Apparent Declination
Unknown
Sunlit
N/A
Visualization observer readout
Local Sidereal Time
12:54:26
Azimuth
Unknown
Elevation
Unknown
Doppler factor
Unknown
Orbital elements
Apogee altitude
698.678 km
Perigee altitude
678.753 km
Semi-major axis
7,066.853 km
Eccentricity
0.00141
Inclination
74.0282°
RAAN
110.3684°
Arg. of periapsis
130.7875°
True anomaly
229.32899°
Mean anomaly
229.4516°
Eccentric anomaly
229.39028°
Mean motion
3.65346 °/min
Orbital period
98.54 mins
BSTAR
0.00087537

Documentation

Showing up to 5 results
|